Reno, NV

5:20 PM PDT on June 24, 2017 (GMT -0700)
Reno-Tahoe International

Weather History for KRNO - September, 2013

Change the Weather History Date:

Saturday, September 14, 2013

  Actual Average Record
Temperature  
Mean Temperature 73 °F 66 °F  
Max Temperature 90 °F 83 °F 96 °F (1937)
Min Temperature 56 °F 49 °F 26 °F (1970)
Degree Days  
Heating Degree Days 0 2  
Month to date heating degree days 0 19  
Since 1 July heating degree days 0 29  
Cooling Degree Days 8 3  
Month to date cooling degree days 119 58  
Year to date cooling degree days 1155 804  
Growing Degree Days 22 (Base 50)    
Moisture  
Dew Point 46 °F    
Average Humidity 45    
Maximum Humidity 72    
Minimum Humidity 17    
Precipitation  
Precipitation 0.00 in 0.01 in 0.20 in (1978)
Month to date precipitation T 0.12  
Year to date precipitation 3.04 4.81  
Snow  
Snow 0.00 in 0.00 in 0.00 in ()
Month to date snowfall 0.0 0.0  
Since 1 July snowfall T 0.0  
Since 1 September snowfall 0.0 0.0  
Snow Depth 0.00 in    
Sea Level Pressure  
Sea Level Pressure 29.79 in    
Wind  
Wind Speed 3 mph (WNW)    
Max Wind Speed 18 mph    
Max Gust Speed 22 mph    
Visibility 10 miles    
Events Rain , Thunderstorm    
T = Trace of Precipitation, MM = Missing Value Source: NWS Daily Summary

Daily Weather History Graph

Daily Weather History Graph

Search for Another Location

Airport or City:

Trip Planner

Search our weather history database for the weather conditions in past years. The results will help you decide how hot, cold, wet, or windy it might be!

Date:

Astronomy

Sep. 14, 2013 Rise Set
Actual Time 6:39 AM PDT 7:08 PM PDT
Civil Twilight 6:12 AM PDT 7:35 PM PDT
Nautical Twilight 5:40 AM PDT 8:07 PM PDT
Astronomical Twilight 5:08 AM PDT 8:39 PM PDT
Moon 3:53 PM PDT (9/14) 1:17 AM PDT (9/14)
Length of Visible Light 13h 22m
Length of Day
12h 29m
Waxing Gibbous, 73% of the Moon is Illuminated
Sep 14
Waxing Gibbous
Sep 19
Full
Sep 26
Last Quarter
Oct 4
New
Oct 11
First Quarter

Hourly Weather History & Observations

Time (PDT) Temp. Dew Point Humidity Pressure Visibility Wind Dir Wind Speed Gust Speed Precip Events Conditions
12:55 AM 66.0 °F 48.0 °F 52% 29.80 in 10.0 mi Calm Calm - N/A   Partly Cloudy
1:55 AM 61.0 °F 48.9 °F 64% 29.81 in 10.0 mi South 3.5 mph - N/A   Partly Cloudy
2:55 AM 61.0 °F 48.9 °F 64% 29.80 in 10.0 mi Calm Calm - N/A   Partly Cloudy
3:55 AM 60.1 °F 48.0 °F 64% 29.81 in 10.0 mi Calm Calm - N/A   Clear
4:55 AM 57.0 °F 48.0 °F 72% 29.81 in 10.0 mi Calm Calm - N/A   Clear
5:55 AM 57.9 °F 48.0 °F 70% 29.83 in 10.0 mi Calm Calm - N/A   Clear
6:55 AM 57.9 °F 48.0 °F 70% 29.85 in 10.0 mi Calm Calm - N/A   Clear
7:55 AM 59.0 °F 48.9 °F 69% 29.86 in 10.0 mi Calm Calm - N/A   Clear
8:55 AM 64.9 °F 48.0 °F 54% 29.86 in 10.0 mi Calm Calm - N/A   Partly Cloudy
9:55 AM 71.1 °F 48.0 °F 44% 29.85 in 10.0 mi Calm Calm - N/A   Scattered Clouds
10:55 AM 75.0 °F 46.9 °F 37% 29.83 in 10.0 mi Calm Calm - N/A   Scattered Clouds
11:55 AM 80.1 °F 46.0 °F 30% 29.80 in 10.0 mi ENE 3.5 mph - N/A   Scattered Clouds
12:55 PM 84.0 °F 46.0 °F 26% 29.77 in 10.0 mi Calm Calm - N/A   Scattered Clouds
1:55 PM 88.0 °F 41.0 °F 19% 29.74 in 10.0 mi East 6.9 mph - N/A   Scattered Clouds
2:55 PM 88.0 °F 37.9 °F 17% 29.72 in 10.0 mi North 3.5 mph - N/A   Scattered Clouds
3:55 PM 88.0 °F 39.9 °F 18% 29.70 in 10.0 mi Calm Calm - N/A   Scattered Clouds
4:43 PM 86.0 °F 41.0 °F 20% 29.86 in 10.0 mi West 5.8 mph - N/A Thunderstorm Thunderstorm
4:55 PM 86.0 °F 41.0 °F 20% 29.70 in 10.0 mi WSW 5.8 mph - N/A Thunderstorm Thunderstorm
5:13 PM 84.2 °F 44.6 °F 25% 29.86 in 10.0 mi WSW 13.8 mph - N/A   Mostly Cloudy
5:55 PM 82.9 °F 46.0 °F 27% 29.71 in 10.0 mi WNW 11.5 mph - N/A   Mostly Cloudy
6:55 PM 82.0 °F 46.0 °F 28% 29.72 in 10.0 mi WNW 11.5 mph - N/A Thunderstorm Thunderstorm
7:32 PM 80.6 °F 46.4 °F 30% 29.89 in 10.0 mi NNW 13.8 mph - N/A   Mostly Cloudy
7:55 PM 79.0 °F 48.0 °F 34% 29.74 in 10.0 mi NNW 13.8 mph - N/A   Mostly Cloudy
8:55 PM 78.1 °F 46.0 °F 32% 29.75 in 10.0 mi WNW 6.9 mph - N/A   Mostly Cloudy
9:55 PM 75.9 °F 46.0 °F 35% 29.76 in 10.0 mi Calm Calm - N/A   Scattered Clouds
10:55 PM 73.9 °F 46.9 °F 38% 29.75 in 10.0 mi WNW 3.5 mph - N/A   Scattered Clouds
11:55 PM 70.0 °F 48.0 °F 46% 29.75 in 10.0 mi Calm Calm - N/A   Clear